TimeEST,TemperatureF,Dew PointF,Humidity,Sea Level PressureIn,VisibilityMPH,Wind Direction,Wind SpeedMPH,Gust SpeedMPH,PrecipitationIn,Events,Conditions,WindDirDegrees,DateUTC
12:15 AM,39.6,31.8,74,29.95,10.0,NW,9.2,21.9,N/A,,Overcast,310,2013-03-07 05:15:00
12:35 AM,40.1,31.1,70,29.95,10.0,NW,12.7,19.6,N/A,,Overcast,310,2013-03-07 05:35:00
12:55 AM,40.1,30.7,69,29.95,10.0,NW,10.4,20.7,N/A,,Overcast,320,2013-03-07 05:55:00
1:15 AM,40.3,30.0,67,29.96,10.0,NNW,11.5,21.9,N/A,,Overcast,330,2013-03-07 06:15:00
1:35 AM,40.3,29.8,66,29.96,10.0,NNW,11.5,18.4,N/A,,Overcast,330,2013-03-07 06:35:00
1:55 AM,40.1,30.2,68,29.96,10.0,NNW,8.1,20.7,N/A,,Overcast,330,2013-03-07 06:55:00
2:15 AM,40.1,30.4,68,29.96,10.0,NW,9.2,17.3,N/A,,Overcast,320,2013-03-07 07:15:00
2:35 AM,40.1,30.4,68,29.96,10.0,NW,9.2,17.3,N/A,,Overcast,320,2013-03-07 07:35:00
2:55 AM,39.7,30.6,70,29.97,10.0,NW,8.1,-,N/A,,Overcast,310,2013-03-07 07:55:00
3:15 AM,39.7,30.4,69,29.97,10.0,NW,8.1,18.4,N/A,,Overcast,320,2013-03-07 08:15:00
3:35 AM,39.4,30.2,70,29.98,10.0,NW,9.2,-,N/A,,Overcast,320,2013-03-07 08:35:00
3:55 AM,39.4,30.2,70,29.99,10.0,NW,6.9,-,N/A,,Overcast,320,2013-03-07 08:55:00
4:15 AM,39.2,30.0,70,30.00,10.0,NW,8.1,-,N/A,,Overcast,320,2013-03-07 09:15:00
4:35 AM,39.2,29.7,69,30.00,10.0,NW,13.8,20.7,N/A,,Overcast,320,2013-03-07 09:35:00
4:55 AM,39.2,29.3,68,30.01,10.0,NNW,8.1,17.3,N/A,,Overcast,330,2013-03-07 09:55:00
5:15 AM,39.2,29.1,67,30.02,10.0,NW,9.2,17.3,N/A,,Overcast,320,2013-03-07 10:15:00
5:35 AM,38.7,28.8,68,30.03,10.0,NW,6.9,-,N/A,,Overcast,320,2013-03-07 10:35:00
5:55 AM,37.8,28.4,69,30.03,10.0,NW,4.6,-,N/A,,Scattered Clouds,310,2013-03-07 10:55:00
6:15 AM,37.6,28.4,69,30.04,10.0,NW,6.9,-,N/A,,Clear,320,2013-03-07 11:15:00
6:35 AM,36.9,28.4,71,30.05,10.0,NW,4.6,-,N/A,,Clear,310,2013-03-07 11:35:00
6:55 AM,36.7,28.4,72,30.05,10.0,NW,3.5,-,N/A,,Clear,310,2013-03-07 11:55:00
7:15 AM,37.0,28.9,73,30.06,10.0,WNW,5.8,-,N/A,,Clear,300,2013-03-07 12:15:00
7:35 AM,37.9,29.5,72,30.07,10.0,NW,5.8,-,N/A,,Clear,310,2013-03-07 12:35:00
7:55 AM,39.2,29.7,69,30.08,10.0,WNW,5.8,-,N/A,,Clear,300,2013-03-07 12:55:00
8:15 AM,40.3,29.3,65,30.08,10.0,NNW,9.2,-,N/A,,Clear,330,2013-03-07 13:15:00
8:35 AM,41.2,28.2,60,30.08,10.0,NW,10.4,17.3,N/A,,Clear,320,2013-03-07 13:35:00
8:55 AM,42.1,27.7,57,30.08,10.0,NW,12.7,24.2,N/A,,Clear,320,2013-03-07 13:55:00
9:15 AM,42.8,27.0,54,30.09,10.0,NW,15.0,21.9,N/A,,Clear,320,2013-03-07 14:15:00
9:35 AM,43.7,26.6,51,30.09,10.0,NW,13.8,21.9,N/A,,Clear,320,2013-03-07 14:35:00
9:55 AM,44.1,25.9,49,30.10,10.0,NNW,12.7,18.4,N/A,,Clear,330,2013-03-07 14:55:00
10:15 AM,44.6,26.1,48,30.10,10.0,NW,12.7,20.7,N/A,,Scattered Clouds,310,2013-03-07 15:15:00
10:35 AM,44.8,25.0,46,30.10,10.0,NW,15.0,28.8,N/A,,Scattered Clouds,320,2013-03-07 15:35:00
10:55 AM,46.2,25.2,44,30.09,10.0,NW,15.0,21.9,N/A,,Scattered Clouds,310,2013-03-07 15:55:00
11:15 AM,46.8,24.8,42,30.09,10.0,NNW,17.3,26.5,N/A,,Scattered Clouds,330,2013-03-07 16:15:00
11:35 AM,48.0,25.3,41,30.09,10.0,NW,13.8,19.6,N/A,,Clear,310,2013-03-07 16:35:00
11:55 AM,48.2,24.3,39,30.09,10.0,NW,13.8,27.6,N/A,,Clear,310,2013-03-07 16:55:00
12:15 PM,48.7,24.1,38,30.09,10.0,WNW,18.4,27.6,N/A,,Clear,300,2013-03-07 17:15:00
12:35 PM,49.3,24.6,38,30.08,10.0,WNW,11.5,23.0,N/A,,Scattered Clouds,290,2013-03-07 17:35:00
12:55 PM,49.1,25.0,39,30.07,10.0,NW,8.1,20.7,N/A,,Scattered Clouds,310,2013-03-07 17:55:00
1:15 PM,49.8,24.4,37,30.06,10.0,WNW,16.1,25.3,N/A,,Scattered Clouds,300,2013-03-07 18:15:00
1:35 PM,49.6,24.3,37,30.06,10.0,NW,15.0,21.9,N/A,,Scattered Clouds,320,2013-03-07 18:35:00
1:55 PM,50.0,23.7,36,30.05,10.0,WNW,15.0,26.5,N/A,,Scattered Clouds,300,2013-03-07 18:55:00
2:15 PM,50.2,23.7,36,30.05,10.0,NW,15.0,25.3,N/A,,Clear,320,2013-03-07 19:15:00
2:35 PM,50.2,22.8,34,30.05,10.0,WNW,12.7,23.0,N/A,,Clear,300,2013-03-07 19:35:00
2:55 PM,50.0,22.8,34,30.06,10.0,WNW,11.5,23.0,N/A,,Clear,290,2013-03-07 19:55:00
3:15 PM,49.6,22.8,35,30.06,10.0,WNW,13.8,21.9,N/A,,Clear,300,2013-03-07 20:15:00
3:35 PM,49.6,24.1,37,30.07,10.0,WNW,9.2,25.3,N/A,,Clear,300,2013-03-07 20:35:00
3:55 PM,48.6,23.7,38,30.08,10.0,WNW,13.8,20.7,N/A,,Clear,290,2013-03-07 20:55:00
4:15 PM,48.6,22.6,36,30.08,10.0,WNW,11.5,21.9,N/A,,Clear,290,2013-03-07 21:15:00
4:35 PM,46.9,22.6,38,30.08,10.0,WNW,8.1,17.3,N/A,,Scattered Clouds,300,2013-03-07 21:35:00
4:55 PM,47.5,22.1,37,30.09,10.0,NW,11.5,18.4,N/A,,Scattered Clouds,320,2013-03-07 21:55:00
5:15 PM,46.0,22.8,40,30.09,10.0,NW,9.2,20.7,N/A,,Clear,320,2013-03-07 22:15:00
5:35 PM,46.4,23.2,40,30.10,10.0,WNW,8.1,17.3,N/A,,Mostly Cloudy,300,2013-03-07 22:35:00
5:55 PM,46.0,23.0,40,30.11,10.0,WNW,9.2,16.1,N/A,,Mostly Cloudy,300,2013-03-07 22:55:00
6:15 PM,45.0,23.7,43,30.11,10.0,WNW,8.1,-,N/A,,Scattered Clouds,300,2013-03-07 23:15:00
6:35 PM,44.6,24.6,45,30.12,10.0,WNW,8.1,-,N/A,,Mostly Cloudy,290,2013-03-07 23:35:00
6:55 PM,44.1,25.2,47,30.13,10.0,West,6.9,-,N/A,,Mostly Cloudy,280,2013-03-07 23:55:00
8:35 PM,42.3,25.3,51,30.15,10.0,WNW,10.4,-,N/A,,Clear,290,2013-03-08 01:35:00
8:55 PM,41.9,25.2,52,30.14,10.0,WNW,6.9,-,N/A,,Clear,290,2013-03-08 01:55:00
9:15 PM,41.0,25.2,53,30.14,10.0,West,6.9,-,N/A,,Clear,280,2013-03-08 02:15:00
9:35 PM,40.3,25.3,55,30.14,10.0,West,5.8,-,N/A,,Clear,280,2013-03-08 02:35:00
9:55 PM,39.6,25.3,57,30.14,10.0,West,5.8,-,N/A,,Clear,280,2013-03-08 02:55:00
10:15 PM,38.7,25.3,59,30.14,10.0,West,4.6,-,N/A,,Clear,270,2013-03-08 03:15:00
10:35 PM,38.1,25.3,60,30.14,10.0,West,5.8,-,N/A,,Clear,270,2013-03-08 03:35:00
10:55 PM,38.3,25.3,60,30.15,10.0,West,6.9,-,N/A,,Clear,280,2013-03-08 03:55:00
11:15 PM,38.5,25.3,59,30.15,10.0,WNW,6.9,-,N/A,,Clear,290,2013-03-08 04:15:00
11:35 PM,38.7,25.3,59,30.14,10.0,WNW,5.8,-,N/A,,Clear,290,2013-03-08 04:35:00
11:55 PM,38.8,25.3,58,30.14,10.0,WNW,6.9,-,N/A,,Clear,290,2013-03-08 04:55:00